User: anonymous   Login
Location: *
(37.4917°N, 71.5558°E)
Time: 12:03:36
(UTC+00:00)
Language:

COSMOS 2455 - Orbit

View from above orbital plane
View from above orbital plane
View from above satellite
View from above satellite

Ground track
Ground track

The orbit data is extracted from the following two-line orbital elements,

1 36095U 09063A   20189.10318696 -.00000086  00000-0 -76203-5 0  9994
2 36095  67.1481 131.3735 0008307 286.8631  73.1543 13.96768751542093
Epoch (UTC): 07 July 2020 02:28:35
Eccentricity: 0.0008307
inclination: 67.1481°
perigee height: 899 km
apogee height: 911 km
right ascension of ascending node: 131.3735°
argument of perigee: 286.8631°
revolutions per day: 13.96768751
mean anomaly at epoch: 73.1543°
orbit number at epoch: 54209

The dashed part of the orbit path shows where the satellite is in the earth's shadow,  

DLR